Regional Weather Roundup
Issued by NWS

Home | Current Version | Previous Version | Graphics & Text | Print | Product List | Glossary On
Versions: 1 2 3 4 5 6 7 8 9 10 11 12 13 14 15 16 17 18 19 20 21 22 23 24 25 26 27
000
ASUS45 KBOI 292010
RWRID

IDAHO REGIONAL WEATHER ROUNDUP
NATIONAL WEATHER SERVICE BOISE ID
200 PM MDT THU SEP 29 2016

NOTE: "FAIR" INDICATES FEW OR NO CLOUDS BELOW 12000 FEET
WITH NO SIGNIFICANT WEATHER AND/OR OBSTRUCTIONS TO VISIBILITY

IDZ012-014-292100-
SOUTHWEST IDAHO


CITY           SKY/WX    TMP DP  RH WIND       PRES   REMARKS
BOISE          MOSUNNY   87  38  17 SE8       30.01F
CALDWELL       MOSUNNY   86  41  20 S5        29.99F
MOUNTAIN HOME  PTSUNNY   85  44  23 E16       30.02F
$$

IDZ016-017-292100-
SOUTHCENTRAL IDAHO


CITY           SKY/WX    TMP DP  RH WIND       PRES   REMARKS
BURLEY         PTSUNNY   78  46  32 S15       30.12F
JEROME         SUNNY     80  43  26 S3        30.12F
TWIN FALLS     MOSUNNY   82  39  21 SE8       30.11F
$$

IDZ019>023-292100-
SOUTHEAST IDAHO


CITY           SKY/WX    TMP DP  RH WIND       PRES   REMARKS
IDAHO FALLS    PTSUNNY   73  46  38 SW10      30.20F
POCATELLO      PTSUNNY   75  46  35 S20G26    30.18F
REXBURG        SUNNY     72  45  37 SW7       30.21F
$$

IDZ006-010-011-018-031-032-292100-
CENTRAL IDAHO MOUNTAINS


CITY           SKY/WX    TMP DP  RH WIND       PRES   REMARKS
MCCALL         MOSUNNY   74  38  27 S7        30.12S
HAILEY         MOSUNNY   72  48  43 SE6       30.21F
STANLEY          N/A     74  37  26 S8        30.22S
SALMON         CLOUDY    73  43  33 NW5       30.08F
CHALLIS        PTSUNNY   70  39  32 CALM      30.15F
$$

IDZ002-004-006-007-026-292100-
NORTHERN IDAHO


CITY           SKY/WX    TMP DP  RH WIND       PRES   REMARKS
LEWISTON       SUNNY     77  46  33 W3        29.94F
LOWELL           N/A     70  50  49 CALM      29.95F
COEUR D`ALENE  SUNNY     72  50  45 N6        29.97F
MULLAN PASS    PTSUNNY   66  44  45 S5        30.13S
$$




USA.gov is the U.S. government's official web portal to all federal, state and local government web resources and services.